Palmdale, CA

6:19 AM PST on December 11, 2017 (GMT -0800)
Palmdale Af Plant 42

Weather History for KPMD - April, 2011

Change the Weather History Date:

Saturday, April 30, 2011

  Actual Average Record
Temperature  
Mean Temperature 52 °F 62 °F  
Max Temperature 68 °F 77 °F 95 °F (1981)
Min Temperature 35 °F 48 °F 33 °F (1937)
Degree Days  
Heating Degree Days 13 4  
Month to date heating degree days 204 228  
Since 1 July heating degree days 2871 2850  
Cooling Degree Days 0 2  
Month to date cooling degree days 5 21  
Year to date cooling degree days 6 23  
Moisture  
Dew Point 9 °F    
Average Humidity 38    
Maximum Humidity 70    
Minimum Humidity 5    
Precipitation  
Precipitation 0.00 in 0.01 in 0.51 in (1955)
Month to date precipitation 0.01 0.47  
Year to date precipitation 2.34 4.98  
Since 1 July precipitation 7.72  
Snow  
Snow 0.00 in - 0.00 in (1973)
Month to date snowfall 0.0  
Since 1 July snowfall 0.0  
Snow Depth 0.00 in    
Sea Level Pressure  
Sea Level Pressure 30.08 in    
Wind  
Wind Speed 12 mph (ENE)    
Max Wind Speed 28 mph    
Max Gust Speed 36 mph    
Visibility 10 miles    
Events      
T = Trace of Precipitation, MM = Missing Value Source: NWS Daily Summary

Daily Weather History Graph

Daily Weather History Graph

Search for Another Location

Airport or City:

Trip Planner

Search our weather history database for the weather conditions in past years. The results will help you decide how hot, cold, wet, or windy it might be!

Date:

Astronomy

Apr. 30, 2011 Rise Set
Actual Time 6:03 AM PDT 7:36 PM PDT
Civil Twilight 5:36 AM PDT 8:03 PM PDT
Nautical Twilight 5:04 AM PDT 8:35 PM PDT
Astronomical Twilight 4:30 AM PDT 9:09 PM PDT
Moon 4:21 AM PDT (4/30) 5:35 PM PDT (4/30)
Length of Visible Light 14h 26m
Length of Day
13h 32m
Waning Crescent, 6% of the Moon is Illuminated
Apr 30
Waning Crescent
May 2
New
May 10
First Quarter
May 17
Full
May 24
Last Quarter

Hourly Weather History & Observations

Time (PDT) Temp. Windchill Dew Point Humidity Pressure Visibility Wind Dir Wind Speed Gust Speed Precip Events Conditions
12:53 AM 46.9 °F - 28.0 °F 48% 30.05 in 10.0 mi WNW 3.5 mph - N/A   Clear
1:53 AM 46.0 °F - 28.0 °F 50% 30.04 in 10.0 mi Calm Calm - N/A   Clear
2:53 AM 42.8 °F 40.1 °F 26.6 °F 53% 30.07 in 10.0 mi South 4.6 mph - N/A   Clear
3:53 AM 35.1 °F 29.3 °F 27.0 °F 72% 30.07 in 10.0 mi ESE 6.9 mph - N/A   Clear
4:53 AM 37.9 °F 30.0 °F 23.0 °F 55% 30.08 in 10.0 mi ESE 12.7 mph - N/A   Clear
5:53 AM 39.0 °F 32.3 °F 17.1 °F 41% 30.09 in 10.0 mi ESE 10.4 mph - N/A   Clear
6:53 AM 42.1 °F 35.7 °F 14.0 °F 32% 30.11 in 10.0 mi East 11.5 mph - N/A   Clear
7:53 AM 52.0 °F - 9.0 °F 18% 30.12 in 10.0 mi East 15.0 mph - N/A   Clear
8:53 AM 55.0 °F - 5.0 °F 13% 30.12 in 10.0 mi ENE 21.9 mph 27.6 mph N/A   Clear
9:53 AM 57.9 °F - 1.0 °F 10% 30.11 in 10.0 mi NE 23.0 mph 34.5 mph N/A   Clear
10:53 AM 61.0 °F - -0.9 °F 8% 30.10 in 10.0 mi ENE 19.6 mph 32.2 mph N/A   Clear
11:53 AM 63.0 °F - -2.0 °F 7% 30.09 in 10.0 mi NE 23.0 mph 35.7 mph N/A   Clear
12:53 PM 64.9 °F - -0.9 °F 7% 30.09 in 10.0 mi ENE 19.6 mph 31.1 mph N/A   Clear
1:53 PM 66.9 °F - -2.0 °F 6% 30.08 in 10.0 mi NE 18.4 mph 26.5 mph N/A   Clear
2:53 PM 66.9 °F - -5.1 °F 6% 30.06 in 10.0 mi NE 16.1 mph 25.3 mph N/A   Clear
3:53 PM 66.9 °F - -8.0 °F 5% 30.06 in 10.0 mi NNE 13.8 mph 21.9 mph N/A   Clear
4:53 PM 66.9 °F - -9.0 °F 5% 30.04 in 10.0 mi NNE 18.4 mph - N/A   Clear
5:53 PM 66.0 °F - -8.0 °F 5% 30.04 in 10.0 mi NE 16.1 mph - N/A   Clear
6:53 PM 64.0 °F - -7.1 °F 6% 30.03 in 10.0 mi NE 12.7 mph - N/A   Clear
7:53 PM 55.9 °F - 1.9 °F 11% 30.04 in 10.0 mi ENE 6.9 mph - N/A   Clear
8:53 PM 50.0 °F - 10.9 °F 21% 30.06 in 10.0 mi East 3.5 mph - N/A   Clear
9:53 PM 51.1 °F - 15.1 °F 24% 30.08 in 10.0 mi WSW 4.6 mph - N/A   Clear
10:53 PM 48.0 °F - 25.0 °F 41% 30.09 in 10.0 mi WSW 4.6 mph - N/A   Clear
11:53 PM 44.1 °F 40.8 °F 24.1 °F 45% 30.10 in 10.0 mi WSW 5.8 mph - N/A   Clear